Theta_e
334 326 319 316 315 312 311 311 313 314 313 312 311 311 310 310 310 309 310 310 310 310 311 312 312 313 314 315 316 315 316 316 317 323 335 342 342 344 344 342 340 340 344
327 330 320 316 314 312 311 311 313 314 314 313 312 312 312 312 311 311 311 311 311 312 313 316 317 318 318 320 320 320 319 321 320 319 320 330 341 342 343 343 342 339 341
328 328 321 317 314 313 312 311 313 315 314 314 314 314 314 313 313 312 312 312 313 316 318 318 317 319 322 324 326 327 325 324 323 323 324 321 326 340 341 342 341 343 341
331 323 321 318 316 314 313 312 313 315 315 315 314 315 315 315 315 314 314 315 316 320 321 321 326 329 331 333 334 333 332 329 327 328 325 315 312 329 332 341 341 341 344
336 326 320 319 316 316 314 312 313 315 316 316 315 315 316 316 316 316 316 318 320 330 332 332 334 334 335 336 336 337 335 333 331 331 328 322 313 321 324 325 339 340 341
335 325 321 319 317 317 316 314 313 314 316 317 316 316 316 317 317 318 319 321 324 333 335 336 337 338 338 338 337 336 338 338 335 333 331 326 325 325 328 335 331 340 339
330 324 323 320 318 317 317 315 314 314 315 317 317 317 317 317 319 320 321 323 326 334 337 338 338 339 339 339 338 338 334 335 338 334 331 330 329 332 331 339 337 340 339
331 326 324 321 319 317 317 316 315 313 315 316 317 318 318 318 319 320 322 324 327 334 337 339 339 337 336 336 335 334 335 335 337 335 331 329 331 332 331 341 337 333 337
334 329 326 323 320 318 317 317 316 314 314 316 317 318 318 319 319 320 322 324 329 334 336 339 338 335 333 333 331 332 333 335 337 334 332 328 329 334 335 335 332 329 328
336 332 328 326 321 318 317 317 317 315 314 315 316 318 319 320 320 322 322 324 327 331 332 331 331 330 331 331 329 329 332 334 334 335 334 330 328 332 334 335 332 330 328
339 336 330 328 326 321 318 317 316 315 314 314 315 317 319 321 323 324 322 322 325 329 331 332 331 330 330 330 329 329 332 332 333 333 331 328 329 327 332 335 332 330 329
340 339 337 334 330 326 321 322 318 317 316 314 315 317 319 323 324 325 324 323 325 331 333 333 332 331 330 328 326 328 331 328 328 328 328 326 328 329 333 334 332 331 329
333 337 338 338 336 332 327 326 323 321 319 318 317 319 320 324 325 328 326 325 327 333 334 335 334 331 330 329 328 329 324 326 329 330 329 327 328 329 335 332 333 331 329
326 328 333 337 339 338 333 330 328 327 324 321 321 322 322 325 326 328 327 326 331 333 334 335 335 333 331 330 329 329 330 330 330 330 330 330 330 327 331 335 332 330 329
325 326 330 335 338 340 339 334 333 329 329 325 326 327 324 324 324 327 326 326 333 334 334 334 334 333 331 331 331 330 330 331 330 330 330 331 332 331 330 331 334 333 331
327 328 327 330 335 341 341 339 338 335 333 332 329 330 328 325 324 325 325 328 335 335 334 334 334 333 332 331 331 330 330 330 328 328 329 329 330 330 330 329 334 332 331
326 327 327 327 329 336 340 340 340 339 338 336 333 332 330 329 326 323 325 333 337 335 333 335 333 332 332 331 331 330 330 329 329 329 330 328 329 330 330 330 331 331 330
326 326 327 326 327 333 337 340 340 340 340 339 337 335 334 331 329 328 327 335 337 334 336 334 333 332 332 331 330 330 330 330 329 328 328 328 329 331 330 330 330 329 330
326 326 326 326 328 331 337 340 341 341 340 340 339 338 335 333 331 329 329 337 335 335 335 334 333 332 332 331 331 330 330 330 329 328 329 328 329 330 331 331 330 329 328
325 325 325 327 328 334 341 342 342 342 341 341 341 340 339 337 337 334 335 337 334 335 334 334 333 333 332 331 330 329 330 329 329 328 328 328 328 330 330 330 330 328 328
325 324 326 327 328 335 343 342 342 342 342 341 341 341 340 340 339 337 338 337 334 334 333 333 333 331 331 330 329 328 328 328 328 327 327 328 328 328 329 329 330 330 329
324 325 326 327 328 334 340 342 342 340 341 342 342 342 342 341 341 340 335 333 334 334 334 333 332 330 329 329 327 325 326 326 327 328 327 327 328 329 329 329 329 329 329
324 326 328 327 329 338 341 343 341 340 340 339 340 340 337 337 336 338 332 334 334 334 332 332 330 329 328 328 328 325 323 325 322 325 326 327 329 329 329 329 329 329 328
324 328 333 333 338 343 343 343 339 336 334 335 336 336 334 334 332 333 334 335 334 332 330 330 330 329 328 326 327 326 324 324 326 324 325 326 328 329 329 329 329 328 327
329 335 342 343 344 345 345 343 339 335 335 335 334 334 333 334 334 335 335 333 331 331 329 330 330 329 328 327 326 326 326 325 326 322 323 322 326 328 328 328 329 328 328
336 343 345 345 345 345 345 343 341 338 336 334 333 333 334 335 335 333 332 332 331 328 329 329 329 329 329 328 327 326 326 324 322 323 322 319 321 327 328 328 328 329 329
Wind_Speed
33 29 33 29 25 24 22 21 20 19 19 18 17 17 16 15 13 11 9 9 9 8 6 5 5 3 2 1 1 2 2 3 4 4 3 2 2 4 4 6 8 10 13
34 32 35 30 27 25 23 22 21 20 19 18 17 16 15 14 14 13 12 11 9 8 7 6 4 4 2 2 2 2 2 3 4 5 5 4 4 4 5 7 8 10 12
28 35 36 31 28 26 25 24 22 20 19 18 17 16 15 14 12 12 11 11 11 10 8 7 5 4 3 2 2 3 3 3 4 5 5 6 6 5 5 6 9 11 12
28 36 36 33 30 28 26 25 23 21 20 18 17 16 15 14 12 12 11 10 10 9 9 7 6 4 4 3 4 4 4 4 5 5 7 6 6 7 5 7 8 11 12
30 35 38 35 33 30 28 27 25 24 22 20 19 18 17 15 14 13 11 10 10 10 9 8 7 5 6 6 6 6 6 5 6 6 7 6 6 8 6 6 10 11 11
32 37 38 37 35 32 30 29 27 26 24 22 21 19 17 15 15 14 12 10 10 10 10 9 8 8 9 9 8 8 9 9 8 8 7 5 5 5 6 7 15 13 13
34 38 38 38 36 34 32 31 29 29 27 25 23 20 18 17 16 15 13 11 10 10 11 10 9 10 12 13 13 11 12 11 12 11 9 7 6 5 5 5 12 12 13
33 36 40 39 38 37 36 34 33 31 29 28 26 24 21 20 17 15 14 11 10 11 11 10 10 11 13 14 14 13 14 13 12 13 12 11 9 6 6 10 11 10 10
31 35 41 41 41 41 39 37 35 34 33 31 29 26 24 22 20 17 14 11 10 11 11 10 11 12 13 14 15 14 14 14 15 16 15 13 10 7 5 11 13 11 9
33 35 40 40 42 43 42 40 38 37 35 33 32 29 27 24 21 18 15 12 10 11 10 10 10 11 13 14 15 15 15 14 15 16 16 15 13 11 8 10 14 13 11
28 32 37 41 42 44 43 42 39 38 36 34 33 31 29 27 24 21 17 14 11 11 11 10 10 11 13 14 14 14 13 15 16 17 18 17 14 13 12 12 16 14 13
33 36 38 40 43 44 45 43 42 41 40 39 37 36 33 31 27 24 19 15 13 13 12 12 12 12 11 12 12 12 14 13 16 18 18 17 17 15 13 14 19 17 15
40 37 43 43 43 44 45 45 45 45 44 42 41 38 36 33 29 27 22 18 16 15 16 15 15 15 14 13 12 9 9 11 12 15 16 15 15 15 12 13 16 19 16
28 36 40 44 45 46 44 43 43 45 47 46 45 42 38 35 32 29 25 21 19 17 17 17 18 17 17 15 14 13 11 12 13 13 12 13 13 12 12 10 14 17 16
19 25 33 37 45 47 47 43 42 46 47 48 45 44 41 39 36 31 26 23 22 20 19 18 18 18 19 16 17 17 15 13 14 14 12 12 11 10 12 14 18 17 17
28 28 30 33 38 41 47 48 48 46 45 42 43 43 42 40 35 31 29 26 24 22 19 18 18 19 20 18 18 18 18 17 17 18 15 15 12 13 13 16 19 19 17
39 34 34 31 34 39 45 47 47 45 42 42 42 42 39 38 35 34 31 27 25 21 18 17 17 18 19 20 20 20 19 20 18 15 16 14 16 14 14 16 19 18 17
41 37 36 29 30 38 40 44 43 41 40 37 36 38 35 33 35 34 29 28 23 20 17 18 18 17 17 19 21 22 21 20 20 16 15 13 14 12 15 16 17 16 16
46 44 38 31 30 37 41 39 38 35 36 34 34 32 30 27 32 28 32 27 21 17 18 18 19 19 19 20 24 25 23 21 19 16 14 13 14 15 14 17 17 16 16
42 39 33 30 31 32 34 32 29 29 29 30 29 30 26 27 24 26 28 24 18 18 17 18 19 18 21 25 24 24 21 19 16 17 13 13 15 16 17 16 18 17 14
36 32 29 28 29 29 30 27 27 30 30 27 28 26 24 23 23 26 25 22 19 18 18 18 16 19 21 21 10 8 11 13 15 16 13 14 14 17 17 18 16 17 16
37 32 29 31 28 30 32 26 17 24 26 27 24 23 24 22 21 24 22 22 20 19 18 17 18 16 14 12 5 3 2 5 15 19 15 14 15 16 16 17 16 14 14
24 29 27 24 26 27 27 22 18 22 21 20 23 23 20 22 23 26 21 22 19 17 15 13 13 14 13 8 13 5 1 3 2 4 13 17 15 15 15 14 18 17 14
26 20 18 19 22 24 24 24 28 22 20 20 29 26 23 25 23 23 23 22 17 13 12 11 10 11 12 9 12 15 3 3 3 2 0 9 15 12 13 12 15 15 15
14 16 14 18 20 23 26 29 31 27 20 23 22 21 19 20 20 21 20 15 12 11 9 9 9 9 11 10 10 6 15 7 2 2 1 2 10 12 11 10 12 14 13
13 18 20 22 23 25 25 28 30 30 22 21 18 17 16 16 18 16 14 12 10 8 8 8 9 10 11 12 12 12 8 5 5 3 1 0 2 5 8 10 10 13 15
Wind_Direction
195 186 185 181 172 170 166 159 154 147 144 143 143 146 147 148 151 155 159 160 161 167 171 167 163 175 190 247 287 291 286 256 246 242 230 206 203 161 187 188 181 161 158
188 189 185 178 174 174 171 166 161 155 152 151 150 151 150 153 156 160 164 167 169 171 173 175 172 173 190 225 257 277 287 295 281 260 251 237 215 210 189 201 198 178 172
184 183 185 178 178 179 176 172 168 163 162 159 158 159 158 159 161 165 168 170 171 173 176 178 180 186 197 219 251 273 281 285 293 290 276 251 220 212 203 204 208 208 191
185 184 185 182 182 184 180 180 175 173 172 168 168 168 167 168 170 175 173 175 179 180 183 185 190 200 229 240 249 253 269 280 282 283 282 269 234 203 207 207 217 213 208
187 190 189 186 187 187 186 186 182 182 180 178 179 178 178 177 179 181 180 184 186 189 194 203 212 224 244 247 247 251 257 264 274 280 286 287 241 214 231 225 215 219 209
188 192 193 192 192 191 191 193 190 189 187 188 189 187 186 185 185 186 187 187 195 201 207 216 233 238 250 258 258 252 253 259 261 273 283 275 254 246 276 256 209 213 212
192 195 197 197 197 197 197 198 196 197 195 195 195 195 195 193 192 193 193 193 199 211 220 226 241 253 256 256 251 253 255 260 256 265 273 272 257 272 280 191 198 212 213
198 200 201 201 202 202 203 203 202 202 201 202 201 199 200 200 198 199 200 196 205 217 228 235 249 257 261 260 259 257 255 252 248 262 272 267 262 273 246 201 207 208 216
206 204 205 205 206 207 207 206 207 206 205 207 207 206 205 205 204 203 204 202 210 224 236 245 256 264 266 268 267 262 256 250 253 260 262 263 259 256 220 221 225 212 228
211 212 209 211 210 210 211 210 210 211 210 211 211 211 211 211 208 207 207 207 214 226 239 248 257 269 270 269 265 262 257 255 253 254 255 255 265 245 232 229 230 228 237
220 220 215 216 215 214 215 215 213 214 216 216 217 216 215 214 212 210 211 213 222 227 236 242 254 265 272 267 265 260 256 251 250 251 256 258 258 256 248 235 233 237 243
224 223 224 223 221 219 218 217 216 216 216 218 219 218 216 216 215 217 215 215 227 229 234 241 249 259 260 261 265 261 252 255 253 254 257 256 257 261 261 254 231 232 242
225 227 228 229 225 222 220 219 217 218 218 219 220 219 218 217 216 218 218 219 225 230 237 240 244 247 252 257 264 269 252 249 259 265 264 261 265 252 258 247 231 226 237
235 236 233 231 227 226 221 220 217 220 219 221 222 220 218 218 216 219 220 224 226 228 234 239 245 248 251 254 260 256 256 262 270 276 266 259 262 238 240 238 224 218 233
256 243 235 231 229 228 222 219 221 224 222 222 223 223 219 220 218 218 223 226 226 227 236 240 242 244 248 253 256 255 253 261 270 268 266 258 253 245 248 242 223 225 231
279 270 253 236 231 226 224 224 226 226 225 221 223 225 222 223 220 222 225 227 228 233 237 238 242 241 245 250 254 251 252 260 269 268 264 258 251 249 245 237 214 220 225
287 280 265 248 233 229 228 226 225 227 223 223 222 225 226 224 221 223 226 228 229 232 236 235 231 237 244 248 251 244 247 260 262 260 257 260 249 251 232 218 215 217 221
285 275 266 248 239 231 226 226 224 223 224 222 223 225 226 225 225 221 225 227 226 233 233 226 230 231 239 240 245 242 246 257 259 264 253 250 246 236 221 213 214 223 226
279 278 267 254 241 228 223 220 222 221 223 222 223 222 221 220 224 218 221 221 222 231 229 225 225 233 245 248 250 253 250 252 258 261 243 247 240 236 232 218 218 222 233
277 277 271 253 226 219 218 215 215 218 220 220 221 216 212 212 216 211 220 215 222 228 228 230 236 241 253 260 262 252 250 250 255 255 243 240 239 233 232 218 221 223 230
277 274 250 228 216 212 206 195 198 200 203 208 211 210 205 209 206 205 213 218 223 229 237 239 254 266 265 262 244 253 252 263 247 240 239 237 235 227 232 223 217 227 224
268 261 236 230 222 215 207 194 195 193 196 197 197 197 201 200 201 200 217 221 229 232 241 253 258 262 261 253 189 111 279 250 244 234 232 234 233 225 222 223 224 231 222
257 247 228 221 217 210 196 175 161 170 166 165 175 172 182 190 204 208 222 220 235 241 247 253 253 244 249 233 209 160 143 224 324 227 232 229 223 226 217 219 221 230 227
254 236 224 213 201 195 184 174 155 146 155 164 170 183 191 200 208 215 216 222 229 231 241 251 248 249 231 216 207 220 206 144 185 314 296 219 211 215 209 218 220 230 227
232 207 192 182 174 174 173 173 162 156 155 163 173 180 193 201 210 212 217 212 214 232 243 240 243 238 227 221 203 187 218 228 223 125 300 4 190 208 209 221 220 220 214
189 173 165 159 155 161 164 167 169 162 154 153 158 167 175 181 187 197 197 212 226 228 236 240 240 237 234 232 229 216 188 170 197 163 163 207 166 158 183 193 199 201 202